Temp
-1 -0 -0 -0 -0 0 0 0 1 1 1 1 1 2 2 2 2 1 1 2 2 3 4 5 5 7 7 8 8 5 7 6 6 7 8 7 9 12 12 13 10 10 10 9 9 9 9 11 11 10 10 7 6 5
-1 -0 -0 -0 -0 0 -0 0 0 0 1 1 1 1 1 1 1 1 1 2 1 2 3 4 5 5 5 6 7 5 9 8 9 9 9 10 10 11 12 11 12 11 12 11 12 12 10 10 11 8 7 7 5 3
-1 -1 -0 -0 -0 -0 -0 -0 -0 0 0 1 1 1 1 1 1 1 1 1 1 1 1 2 3 5 5 6 6 7 5 6 6 6 9 9 9 10 10 11 12 12 10 10 11 13 12 10 8 7 5 4 4 3
-1 -0 -0 -0 -0 -0 -0 -0 0 0 0 0 0 0 1 1 1 1 1 1 1 1 1 1 3 4 5 5 5 6 6 6 5 5 7 7 8 7 9 9 10 10 9 10 7 9 11 10 9 8 3 1 2 1
-0 -1 -1 -0 -0 -0 -0 0 0 0 0 0 0 1 1 1 1 1 1 1 1 2 1 -0 2 3 4 4 4 5 5 4 4 5 4 5 4 5 4 4 6 7 9 8 9 11 10 10 7 4 1 1 1 -0
-0 -0 -0 -0 -0 -0 -1 -0 0 0 0 0 0 0 1 1 1 0 0 0 1 1 1 1 -0 1 3 4 3 4 4 4 4 4 4 4 3 5 6 7 10 10 9 10 10 10 7 5 3 2 1 0 -1 -1
-0 -0 -0 -0 -0 -0 -1 -1 -0 -0 0 0 0 1 1 1 0 -0 1 1 1 1 1 -1 -0 -1 0 1 1 1 2 2 3 3 3 5 5 4 4 6 9 9 9 9 9 6 3 1 2 1 0 -1 -3 -3
0 0 0 -0 -0 -1 -1 -1 -1 -1 -0 0 0 0 1 1 0 -0 1 2 2 1 0 1 -0 -1 -1 0 1 0 1 1 2 3 2 3 4 3 4 8 7 7 8 8 8 4 6 3 0 1 -1 -3 -4 -3
0 0 0 0 -0 -1 -1 -1 -0 -1 -1 -0 -0 0 0 -0 -0 -0 0 1 1 1 -1 0 2 1 -1 -0 -0 -0 1 1 2 3 4 4 6 5 6 8 8 9 8 8 7 4 3 1 1 -1 -2 -3 -3 -4
0 0 0 -0 -1 -1 -1 -0 -0 -1 -0 -0 -0 0 0 0 0 -0 0 0 1 1 1 3 3 1 1 0 -0 0 0 3 2 3 3 4 5 6 7 7 7 8 8 7 4 2 1 0 -1 -1 -2 -3 -3 -4
0 0 0 -0 -0 -0 -0 -0 -0 -1 -1 -0 -0 -0 -0 0 -0 0 -0 -0 -1 -1 -1 4 3 1 1 2 2 2 1 3 3 5 3 3 5 6 6 6 7 7 7 7 5 5 3 2 0 -2 -3 -4 -4 -3
0 1 0 0 -0 -0 -0 -0 -0 -1 0 -0 1 0 0 0 -0 0 1 0 1 2 -0 4 2 2 1 2 2 1 2 2 3 2 1 3 7 8 8 7 6 6 6 6 4 3 2 1 -0 -2 -3 -3 -3 -4
0 1 1 0 0 -0 -0 -0 -0 -0 -0 -0 0 -0 -0 -0 1 2 2 2 3 0 1 2 1 0 -0 1 2 2 1 2 3 1 4 7 8 8 7 4 4 5 4 2 2 1 0 1 -0 -1 -2 -2 -3 -5
0 0 0 1 0 -0 -0 -0 0 -1 0 -0 -0 -0 2 1 3 5 5 6 3 3 2 3 3 3 2 3 2 2 3 3 1 2 5 6 6 7 6 5 3 2 1 1 0 -0 1 1 -1 -2 -1 -1 -4 -5
-0 0 0 0 0 -0 -0 -0 -1 -0 1 -0 0 2 1 2 4 4 6 4 2 3 3 4 2 2 2 1 2 3 1 2 4 7 8 8 6 5 4 4 2 1 0 -1 -2 0 1 0 -1 -2 -1 -3 -4 -4
-0 -0 -0 -0 -0 -0 -0 -1 -0 0 0 0 -0 1 1 2 1 2 4 3 3 4 4 4 3 3 3 4 2 2 4 4 6 6 7 5 5 4 3 1 0 -1 -2 -2 -2 1 0 -0 -1 -1 -3 -4 -4 -5
-0 0 -0 -0 -0 -0 -1 -1 -0 0 -1 -0 0 -0 2 2 1 2 3 3 3 4 4 4 3 4 5 4 4 6 5 6 7 6 4 4 3 3 1 -0 -1 -2 -3 -3 -1 -1 -1 -3 -2 -3 -4 -5 -6 -6
0 0 -0 -0 -0 -1 -1 0 -0 -1 -0 -0 2 0 -0 2 2 2 3 3 3 5 5 6 4 4 4 5 6 7 5 5 5 5 4 3 3 1 -0 -2 -2 -3 -4 -2 -1 -2 -2 -3 -4 -5 -5 -5 -6 -7
0 -0 -0 -1 -1 -1 -0 -0 -1 0 -1 -1 -1 -1 0 0 1 1 2 2 4 4 3 5 5 6 6 6 7 6 6 4 4 3 2 2 1 0 -1 -3 -3 -4 -3 -2 -2 -2 -2 -4 -5 -5 -6 -6 -8 -9
-1 -1 -1 -1 0 1 -1 -1 -1 1 1 -1 -1 -1 -0 -0 0 0 1 1 2 3 4 5 6 6 6 4 5 5 5 4 3 0 -1 -2 -2 -2 -3 -4 -4 -5 -4 -4 -4 -3 -6 -6 -6 -7 -5 -7 -8 -8
-1 -1 -0 0 -0 -1 -1 -1 -1 -1 -1 -1 -1 -1 -1 -0 1 1 1 1 3 4 6 5 4 3 4 5 4 5 5 5 5 4 3 -1 -3 -4 -5 -6 -5 -4 -3 -3 -4 -6 -5 -5 -6 -6 -5 -7 -7 -7
-1 -0 -0 -0 -0 -1 -1 -1 -1 -1 -1 -1 -0 -0 -0 0 0 -0 -0 2 3 4 3 2 2 3 4 4 5 5 5 4 3 2 1 -1 -4 -5 -5 -5 -5 -3 -2 -2 -3 -2 -4 -6 -5 -5 -6 -7 -6 -7
-0 1 1 1 -0 -1 -1 -1 -0 1 1 -0 1 1 -0 -0 -1 -1 0 1 2 2 3 2 2 3 3 4 3 2 2 1 -0 -1 -1 -3 -4 -4 -4 -4 -4 -2 -2 -3 -2 -3 -4 -4 -5 -6 -6 -6 -6 -7
1 1 -0 -0 -0 -1 -1 -1 0 1 0 1 2 0 1 -0 -1 -0 1 1 1 1 2 2 2 2 0 -0 -0 -1 -0 -2 -3 -2 -4 -4 -5 -6 -5 -3 -2 -2 -2 -1 -2 -3 -3 -5 -6 -6 -6 -6 -7 -8
1 -1 -1 -1 -1 -0 -0 -0 0 1 1 1 1 -0 -0 -1 1 1 2 2 -2 -2 -1 -1 -1 -2 -2 -3 -4 -4 -3 -4 -4 -4 -5 -6 -5 -6 -5 -3 -2 -2 -2 -2 -3 -3 -5 -5 -6 -6 -6 -6 -7 -8
-1 -3 -1 -1 -1 0 1 -0 -0 -0 0 -0 -0 0 -0 1 0 2 2 0 -2 -3 -3 -3 -3 -3 -3 -4 -5 -5 -4 -5 -5 -6 -6 -4 -3 -0 -0 -2 -2 -2 -2 -3 -3 -4 -5 -5 -5 -5 -6 -7 -8 -8
-1 -2 -2 -3 -1 -1 -1 -1 -0 0 -0 -0 -0 -1 -0 1 1 1 -3 -3 -4 -4 -3 -3 -4 -3 -4 -5 -5 -5 -5 -5 -5 -3 -2 -3 -2 -1 0 1 -0 -1 -2 -3 -4 -4 -3 -4 -5 -6 -7 -8 -8 -8
-2 -2 -1 -3 -3 -3 -2 -1 -1 -0 -1 -1 -1 -1 0 0 -1 -5 -4 -4 -4 -4 -4 -4 -4 -4 -4 -3 -3 -3 -3 -3 -2 -2 -1 -1 -1 -1 -1 -2 -2 -2 -2 -3 -3 -4 -4 -5 -6 -6 -7 -8 -8 -9
-3 -4 -3 -4 -4 -4 -3 -2 -2 -3 -4 -3 -2 -3 -3 -6 -7 -6 -5 -4 -4 -4 -4 -3 -3 -2 -2 -3 -3 -2 -2 -2 -1 -2 -1 -2 -2 -2 -3 -3 -3 -3 -4 -4 -4 -5 -6 -6 -7 -7 -8 -8 -9 -9
-4 -4 -4 -5 -4 -4 -5 -6 -5 -5 -5 -5 -6 -6 -7 -7 -6 -6 -5 -5 -4 -4 -3 -3 -2 -2 -2 -2 -2 -2 -2 -2 -2 -0 -0 -1 -1 -1 -2 -3 -3 -3 -3 -4 -4 -5 -6 -7 -7 -7 -8 -8 -9 -9
-5 -5 -4 -5 -4 -5 -6 -6 -5 -6 -6 -6 -6 -5 -6 -7 -6 -5 -5 -4 -4 -3 -3 -3 -2 -2 -1 -1 -1 -1 -2 -2 -2 -2 -1 -1 -1 -2 -2 -3 -3 -3 -4 -4 -5 -6 -6 -7 -7 -8 -8 -8 -9 -9
-6 -5 -4 -4 -4 -5 -5 -5 -5 -5 -5 -5 -6 -6 -7 -6 -6 -7 -6 -5 -4 -3 -3 -2 -2 -2 -2 -2 -2 -2 -2 -2 -2 -2 -2 -2 -2 -3 -3 -3 -4 -4 -4 -5 -6 -6 -7 -7 -8 -8 -8 -9 -9 -9
-6 -5 -4 -4 -4 -4 -6 -5 -4 -4 -5 -6 -6 -7 -9 -7 -7 -8 -7 -5 -4 -4 -3 -3 -3 -3 -3 -3 -3 -3 -3 -3 -3 -3 -3 -3 -3 -3 -3 -4 -4 -5 -5 -6 -6 -7 -7 -8 -8 -8 -9 -9 -9 -9
Height
1334 1343 1352 1359 1368 1376 1385 1392 1401 1408 1416 1425 1433 1439 1447 1454 1462 1468 1475 1481 1486 1490 1493 1495 1496 1497 1497 1497 1499 1506 1511 1512 1515 1516 1515 1517 1511 1504 1504 1500 1507 1508 1514 1519 1519 1520 1514 1499 1503 1505 1502 1503 1505 1507
1325 1334 1342 1351 1359 1368 1377 1384 1393 1401 1410 1418 1425 1432 1440 1448 1456 1465 1471 1476 1483 1487 1490 1491 1492 1493 1495 1497 1499 1500 1499 1501 1503 1505 1505 1505 1503 1500 1498 1500 1499 1502 1497 1500 1501 1495 1496 1498 1497 1499 1500 1501 1503 1504
1315 1323 1333 1342 1350 1359 1368 1376 1386 1394 1403 1411 1419 1427 1435 1443 1451 1459 1466 1472 1479 1478 1486 1488 1489 1491 1493 1494 1495 1496 1499 1499 1500 1500 1501 1501 1502 1500 1495 1494 1490 1495 1499 1497 1496 1489 1492 1495 1496 1496 1497 1497 1498 1500
1303 1313 1322 1331 1340 1350 1359 1368 1378 1388 1396 1405 1414 1421 1429 1438 1447 1455 1460 1467 1474 1478 1481 1481 1484 1487 1489 1492 1492 1493 1495 1496 1498 1500 1500 1500 1500 1501 1495 1495 1494 1493 1498 1493 1496 1492 1491 1489 1491 1493 1494 1495 1496 1497
1291 1301 1310 1320 1330 1340 1350 1360 1370 1379 1390 1399 1407 1416 1425 1434 1444 1453 1459 1463 1467 1475 1474 1477 1480 1483 1486 1488 1491 1493 1494 1496 1497 1500 1500 1500 1502 1503 1502 1502 1494 1494 1490 1490 1486 1485 1486 1486 1488 1488 1489 1492 1493 1495
1282 1291 1299 1309 1320 1330 1340 1351 1362 1372 1382 1393 1403 1412 1421 1430 1441 1450 1457 1459 1461 1468 1472 1475 1476 1477 1481 1485 1489 1491 1492 1495 1497 1497 1499 1498 1499 1501 1494 1485 1481 1483 1482 1481 1480 1481 1481 1484 1485 1485 1488 1490 1492 1493
1273 1281 1290 1300 1310 1321 1332 1343 1353 1365 1377 1388 1398 1408 1417 1427 1434 1438 1442 1445 1455 1466 1470 1475 1475 1476 1479 1483 1485 1487 1489 1492 1495 1495 1495 1494 1496 1496 1487 1474 1478 1477 1476 1476 1477 1476 1478 1478 1480 1482 1484 1487 1489 1489
1264 1272 1281 1290 1300 1312 1323 1335 1346 1358 1370 1382 1393 1404 1415 1426 1436 1440 1442 1445 1451 1462 1466 1469 1473 1476 1475 1479 1484 1487 1488 1491 1490 1489 1491 1491 1490 1489 1470 1465 1468 1469 1468 1469 1469 1469 1472 1472 1474 1477 1481 1484 1485 1486
1253 1263 1272 1281 1292 1304 1316 1327 1339 1351 1365 1378 1391 1404 1416 1423 1426 1428 1440 1445 1450 1457 1457 1457 1460 1466 1472 1475 1480 1485 1487 1488 1487 1483 1482 1484 1473 1460 1453 1457 1458 1455 1457 1456 1460 1464 1466 1466 1468 1472 1476 1479 1482 1484
1245 1255 1265 1276 1287 1298 1310 1322 1330 1346 1360 1375 1390 1396 1397 1404 1417 1429 1440 1444 1443 1443 1447 1448 1454 1461 1466 1469 1476 1483 1484 1481 1478 1475 1477 1469 1447 1447 1449 1450 1443 1444 1447 1450 1452 1456 1459 1461 1463 1467 1469 1474 1477 1480
1239 1249 1260 1271 1282 1294 1306 1319 1331 1343 1357 1366 1371 1381 1388 1400 1416 1423 1426 1431 1432 1432 1434 1436 1443 1451 1461 1463 1469 1474 1477 1475 1470 1463 1467 1454 1435 1437 1430 1425 1429 1431 1435 1439 1442 1447 1450 1451 1455 1460 1465 1469 1473 1475
1233 1244 1255 1266 1278 1289 1302 1315 1327 1338 1345 1352 1362 1373 1382 1394 1401 1406 1412 1415 1414 1413 1420 1422 1434 1443 1455 1460 1463 1470 1469 1469 1461 1462 1462 1440 1424 1420 1418 1418 1420 1424 1428 1431 1436 1441 1443 1446 1449 1454 1460 1464 1469 1473
1229 1240 1252 1263 1274 1285 1298 1310 1321 1333 1339 1352 1363 1363 1366 1378 1379 1386 1385 1393 1396 1408 1411 1414 1428 1436 1447 1452 1454 1458 1460 1458 1457 1456 1436 1419 1418 1415 1413 1412 1413 1416 1418 1425 1431 1435 1437 1441 1446 1451 1455 1461 1466 1471
1225 1238 1250 1260 1271 1283 1295 1308 1317 1321 1336 1337 1344 1352 1354 1363 1360 1358 1364 1372 1384 1393 1400 1411 1420 1425 1435 1440 1446 1447 1446 1450 1449 1440 1419 1413 1407 1408 1409 1408 1409 1411 1415 1421 1426 1428 1432 1437 1443 1449 1454 1457 1463 1467
1224 1237 1249 1261 1272 1283 1294 1304 1313 1325 1329 1335 1339 1341 1345 1346 1350 1356 1360 1371 1380 1387 1395 1407 1419 1419 1428 1436 1436 1436 1443 1436 1424 1408 1404 1400 1403 1403 1403 1403 1405 1408 1412 1417 1421 1425 1430 1436 1441 1447 1451 1457 1462 1466
1223 1240 1250 1260 1273 1283 1287 1304 1310 1320 1324 1329 1336 1337 1341 1348 1355 1356 1358 1368 1376 1384 1396 1402 1409 1415 1420 1420 1425 1424 1421 1413 1402 1398 1396 1397 1397 1398 1398 1400 1403 1406 1410 1415 1420 1424 1430 1436 1441 1444 1451 1456 1460 1465
1227 1231 1247 1261 1274 1284 1295 1298 1308 1317 1324 1326 1330 1332 1334 1340 1344 1351 1356 1361 1371 1379 1382 1391 1400 1400 1406 1407 1408 1403 1396 1382 1388 1391 1391 1393 1394 1395 1397 1398 1401 1404 1409 1414 1418 1424 1430 1436 1440 1444 1449 1454 1459 1463
1226 1237 1250 1263 1273 1285 1292 1301 1307 1312 1319 1324 1326 1331 1335 1337 1340 1347 1350 1355 1365 1367 1371 1376 1384 1390 1392 1390 1385 1377 1380 1384 1385 1386 1388 1389 1391 1392 1394 1396 1399 1403 1408 1413 1418 1423 1429 1433 1439 1443 1448 1453 1457 1461
1232 1245 1255 1263 1271 1282 1292 1303 1307 1311 1318 1321 1323 1329 1334 1336 1343 1344 1347 1355 1359 1363 1368 1370 1372 1372 1373 1371 1370 1373 1375 1377 1380 1382 1384 1386 1388 1390 1392 1394 1398 1403 1408 1413 1418 1422 1428 1434 1437 1442 1446 1451 1456 1458
1242 1251 1261 1271 1281 1287 1293 1300 1304 1308 1317 1322 1324 1332 1335 1338 1342 1345 1353 1357 1360 1363 1365 1363 1360 1361 1362 1363 1365 1368 1371 1373 1376 1379 1382 1384 1385 1387 1390 1393 1397 1403 1409 1414 1419 1423 1429 1433 1437 1441 1445 1450 1453 1455
1251 1259 1266 1273 1279 1286 1293 1300 1305 1311 1316 1321 1327 1329 1336 1342 1345 1350 1355 1358 1361 1358 1355 1356 1357 1358 1361 1363 1364 1366 1368 1371 1372 1373 1374 1376 1381 1385 1390 1395 1398 1401 1406 1412 1417 1423 1426 1431 1435 1439 1443 1447 1449 1452
1256 1265 1271 1275 1280 1287 1294 1299 1304 1310 1317 1322 1325 1329 1336 1341 1345 1350 1353 1356 1354 1351 1352 1352 1354 1357 1359 1361 1362 1364 1366 1368 1369 1370 1372 1374 1378 1381 1384 1389 1394 1399 1405 1411 1415 1419 1425 1430 1433 1437 1441 1444 1447 1449
1264 1268 1274 1279 1284 1293 1305 1304 1306 1310 1317 1323 1325 1330 1336 1340 1344 1348 1351 1350 1346 1345 1346 1348 1351 1354 1356 1357 1358 1360 1362 1364 1367 1368 1369 1373 1376 1379 1382 1388 1394 1398 1404 1410 1414 1419 1423 1427 1432 1435 1438 1441 1444 1446
1269 1271 1276 1280 1286 1296 1300 1302 1305 1310 1318 1321 1324 1330 1334 1339 1343 1344 1343 1342 1338 1339 1341 1344 1347 1350 1352 1353 1355 1356 1358 1361 1362 1364 1367 1369 1373 1378 1383 1389 1394 1400 1405 1408 1413 1417 1421 1426 1430 1432 1436 1438 1441 1442
1275 1283 1284 1287 1290 1294 1298 1302 1306 1308 1313 1319 1322 1327 1331 1336 1335 1336 1333 1332 1334 1334 1336 1338 1342 1344 1347 1349 1351 1352 1353 1356 1358 1360 1363 1368 1371 1377 1383 1389 1394 1399 1403 1407 1411 1415 1420 1423 1427 1430 1433 1435 1437 1439
1281 1286 1287 1288 1292 1293 1296 1300 1303 1307 1312 1317 1320 1323 1326 1327 1328 1322 1321 1322 1324 1326 1328 1331 1335 1340 1343 1344 1345 1346 1349 1352 1356 1359 1361 1365 1371 1375 1380 1386 1391 1397 1401 1406 1409 1413 1416 1420 1424 1427 1429 1432 1434 1435
1282 1286 1288 1289 1290 1292 1295 1298 1300 1302 1306 1308 1312 1317 1318 1318 1315 1318 1321 1323 1322 1322 1327 1331 1336 1338 1338 1339 1342 1344 1348 1351 1355 1358 1362 1368 1375 1381 1385 1387 1390 1395 1399 1403 1407 1411 1414 1418 1421 1424 1426 1428 1430 1431
1286 1288 1288 1292 1292 1294 1295 1298 1300 1301 1304 1307 1308 1311 1310 1311 1313 1318 1318 1318 1319 1322 1325 1328 1331 1333 1335 1338 1340 1343 1347 1351 1357 1362 1367 1372 1376 1381 1385 1389 1392 1395 1399 1402 1406 1409 1413 1416 1418 1421 1423 1425 1426 1427
1287 1289 1290 1293 1294 1297 1298 1299 1299 1302 1304 1305 1307 1312 1316 1318 1318 1317 1317 1317 1318 1321 1323 1325 1328 1332 1336 1339 1343 1347 1351 1354 1358 1362 1366 1370 1375 1380 1383 1386 1389 1393 1397 1401 1405 1409 1411 1413 1416 1418 1420 1421 1422 1423
1290 1291 1293 1298 1299 1301 1303 1303 1304 1305 1305 1308 1311 1315 1317 1318 1318 1318 1319 1320 1323 1325 1327 1330 1333 1337 1339 1342 1345 1350 1354 1358 1362 1366 1367 1370 1374 1378 1381 1385 1388 1392 1395 1398 1401 1404 1407 1410 1413 1414 1416 1418 1419 1420
1291 1293 1296 1300 1303 1306 1306 1306 1306 1307 1308 1311 1313 1316 1319 1322 1323 1324 1324 1325 1327 1329 1331 1334 1337 1340 1343 1346 1349 1352 1356 1361 1364 1367 1370 1372 1376 1379 1382 1385 1388 1391 1394 1397 1400 1402 1405 1408 1410 1412 1414 1415 1416 1416
1292 1293 1295 1300 1305 1308 1308 1309 1310 1313 1315 1317 1320 1321 1323 1324 1327 1329 1329 1331 1332 1334 1336 1339 1341 1344 1347 1350 1353 1356 1359 1362 1365 1368 1370 1373 1376 1379 1382 1385 1387 1390 1392 1395 1398 1401 1403 1406 1408 1409 1411 1412 1412 1413
1296 1296 1297 1301 1306 1308 1311 1311 1314 1318 1321 1323 1325 1326 1327 1329 1332 1333 1333 1333 1335 1336 1339 1342 1345 1348 1351 1353 1356 1358 1361 1364 1367 1370 1372 1374 1377 1379 1381 1384 1386 1389 1391 1394 1396 1399 1401 1404 1406 1407 1408 1409 1409 1409
Wind_Speed
44 43 44 42 43 42 41 41 41 40 42 43 42 41 40 39 38 37 33 33 26 13 9 17 10 9 7 11 5 7 6 3 3 7 5 3 4 9 10 8 6 10 8 5 7 5 10 7 6 5 2 1 5 8
46 47 46 46 45 44 43 43 42 41 41 41 40 38 38 39 38 37 31 29 28 16 10 22 26 21 11 11 13 10 5 8 12 6 5 4 6 4 9 7 11 7 8 4 8 5 4 6 7 4 5 7 8 12
47 48 49 48 47 47 45 43 44 43 42 40 39 39 38 39 37 38 34 30 31 14 19 15 19 26 23 13 13 11 7 5 5 4 6 4 6 3 6 10 11 10 3 5 5 9 8 9 10 9 7 9 10 11
49 50 50 50 50 48 46 46 45 44 43 42 40 39 39 39 38 37 35 31 34 9 5 12 22 17 21 17 7 10 9 12 7 4 4 3 3 2 3 4 5 3 7 7 4 14 20 23 17 12 9 10 12 11
45 48 49 48 49 52 51 49 46 44 44 43 41 39 38 38 36 35 33 32 35 21 6 6 28 28 27 16 11 7 6 7 5 4 1 2 1 1 1 2 4 10 9 5 5 16 12 18 10 9 12 13 12 11
42 44 43 48 49 48 51 50 49 47 44 42 41 39 37 37 35 34 16 33 36 37 2 3 9 19 20 23 23 18 13 8 3 4 2 3 4 4 4 5 11 18 27 25 23 16 11 7 5 8 11 13 12 13
39 43 46 48 49 49 49 49 48 49 48 44 41 40 38 36 39 44 13 14 41 33 8 3 3 8 19 15 13 13 13 6 8 5 6 7 8 7 4 14 18 16 23 22 19 18 10 15 9 13 15 14 14 13
40 44 45 47 50 50 50 49 49 48 47 45 41 41 39 36 35 40 19 13 25 29 10 4 3 6 16 7 6 7 6 6 7 5 3 5 5 6 7 9 20 31 32 28 25 22 19 11 13 17 17 17 16 15
40 44 46 47 52 49 50 48 51 48 47 45 41 39 36 31 32 39 32 13 28 19 10 7 7 5 15 5 6 6 5 3 3 5 7 9 8 10 7 20 20 29 28 26 21 19 16 17 18 20 21 19 18 16
41 44 46 46 47 50 50 46 50 52 49 46 42 31 16 32 33 30 24 22 18 15 11 6 11 5 17 10 6 8 4 4 3 6 6 5 13 32 28 28 33 28 30 24 21 19 19 19 23 24 23 21 18 16
43 45 46 47 48 50 50 49 46 45 46 46 20 13 22 39 30 19 10 10 10 6 11 20 22 10 12 8 4 8 4 4 4 5 6 5 6 9 34 50 46 42 38 29 31 20 22 20 26 26 24 22 19 16
43 46 47 46 47 49 50 51 50 51 34 37 26 27 32 16 9 7 6 8 6 7 10 21 26 16 12 9 5 10 5 5 6 10 4 5 6 26 27 29 33 34 32 29 27 21 19 20 23 25 26 24 20 16
46 45 48 45 47 52 50 50 52 43 42 39 18 14 10 8 8 10 16 5 8 10 13 22 12 13 8 7 5 5 8 7 7 4 5 5 15 19 17 11 13 14 20 21 23 20 21 22 24 26 26 21 18 17
48 46 49 46 46 49 52 49 59 43 44 7 7 7 6 6 9 6 13 14 13 19 32 34 19 7 7 7 4 7 5 4 5 6 7 8 26 25 11 13 10 14 19 22 23 25 25 26 26 26 22 19 21 20
51 50 49 47 46 47 48 46 59 52 20 5 7 6 7 4 8 15 21 20 21 30 35 24 9 6 4 4 4 4 7 7 7 9 10 17 11 12 12 13 14 16 22 24 25 28 28 28 28 27 21 20 20 17
55 46 49 48 48 45 62 60 41 29 10 6 6 4 10 11 6 13 23 23 31 37 32 11 4 5 4 4 7 8 6 7 6 7 13 7 6 7 8 11 13 17 21 24 27 28 28 29 27 23 24 22 19 16
53 27 50 49 51 48 52 32 22 9 6 7 3 5 13 13 21 22 28 30 43 33 9 5 9 9 6 5 7 6 7 14 15 11 10 7 6 7 8 11 16 20 23 26 28 28 30 28 25 25 25 23 19 15
22 48 51 49 57 62 31 24 6 6 3 4 6 15 10 14 25 23 20 43 34 26 21 7 10 6 7 9 7 10 16 13 13 13 11 10 8 7 10 13 18 21 24 28 29 31 30 28 25 23 22 22 19 16
44 53 53 62 52 31 8 6 4 4 4 5 12 11 7 14 16 19 28 40 23 21 16 10 5 7 5 7 8 12 17 15 10 12 10 8 8 9 11 14 19 23 27 30 31 30 27 24 21 22 21 21 16 14
52 64 56 50 40 12 5 5 6 7 3 4 9 11 11 10 17 23 30 20 18 13 5 5 4 6 7 9 12 10 11 14 14 9 7 8 10 11 14 19 23 26 28 29 26 26 23 21 19 20 20 19 15 13
43 36 44 30 15 8 6 6 5 6 7 6 11 6 10 14 19 26 19 15 14 8 6 7 5 8 8 8 11 11 9 9 12 13 11 14 16 17 19 20 27 32 34 32 27 24 23 21 21 21 22 19 16 13
33 32 27 12 6 6 7 5 9 9 5 9 6 6 8 5 8 12 12 8 8 16 9 6 8 10 11 11 10 10 10 11 14 14 15 17 22 24 26 30 34 36 33 30 25 26 23 20 22 23 22 18 15 12
22 12 8 5 5 5 6 4 4 4 4 5 7 5 3 4 7 18 4 7 7 14 20 15 12 12 14 16 14 15 16 15 14 14 15 17 20 21 28 32 33 35 29 24 23 24 24 23 23 22 20 17 15 12
9 5 5 4 6 4 4 3 5 6 6 4 4 5 6 4 16 4 4 6 12 18 20 20 17 17 17 15 14 15 16 15 14 14 17 19 21 23 27 29 29 27 24 25 25 24 24 25 23 21 18 16 14 12
5 5 4 5 3 4 4 4 4 3 3 4 5 4 5 8 5 7 4 6 17 23 25 24 22 19 15 14 14 14 16 16 16 18 18 19 23 27 26 25 25 25 24 24 26 26 26 24 22 20 18 16 14 12
4 2 2 2 2 3 4 4 4 5 4 4 3 7 6 5 6 5 4 10 13 21 28 29 24 16 15 15 16 17 18 18 18 19 20 25 32 36 34 30 28 25 24 24 25 26 24 22 21 19 18 16 15 13
3 2 3 3 4 6 4 4 5 3 3 4 5 5 4 5 7 3 3 6 7 14 22 20 18 16 14 15 16 18 19 18 19 23 28 28 27 27 25 24 27 26 27 26 24 21 19 19 19 18 17 16 15 13
3 2 4 2 4 4 3 3 3 3 3 5 8 5 6 1 1 2 2 2 5 12 18 17 14 13 18 21 22 23 24 23 23 25 27 25 22 21 20 19 18 18 19 19 19 19 18 17 16 16 16 15 14 13
3 3 5 4 5 5 4 3 2 3 2 3 2 2 2 2 3 2 2 6 10 14 19 20 20 21 23 22 23 24 26 28 29 31 28 27 26 25 24 21 20 21 20 20 19 18 16 15 15 15 14 15 15 13
2 2 4 3 3 2 3 2 3 4 6 7 6 6 5 5 7 6 9 12 15 18 18 21 25 24 24 24 26 26 26 26 25 25 27 26 26 24 23 21 20 20 20 21 21 20 19 17 15 14 14 14 13 13
4 3 4 3 3 3 6 12 12 11 7 8 12 11 8 6 12 9 10 10 13 17 20 26 25 23 25 26 27 27 25 22 19 17 14 15 17 19 20 18 17 17 17 17 16 15 14 14 14 13 13 13 12 12
3 3 4 4 4 5 5 4 5 5 5 6 5 4 4 4 5 6 6 11 14 17 21 22 22 23 22 22 21 20 19 20 17 14 14 17 18 17 17 16 16 15 15 15 15 15 14 14 13 12 12 12 12 11
5 7 9 6 3 3 3 3 4 4 5 4 5 4 4 4 3 3 5 10 13 14 18 20 20 20 19 19 17 15 17 16 13 13 14 14 13 14 15 15 14 14 14 14 14 14 13 12 12 11 11 11 10 10
Wind_Direction
218 215 214 213 213 212 212 209 209 208 209 213 215 217 216 211 206 206 207 204 197 193 202 212 212 223 204 214 182 164 165 214 187 205 211 188 230 213 234 220 185 180 185 196 217 226 256 140 149 214 49 132 185 172
216 216 215 215 214 213 212 209 210 211 211 212 212 209 207 205 204 203 206 205 203 195 211 215 230 235 244 235 222 192 241 168 193 195 205 201 207 219 223 228 211 224 213 204 210 218 103 194 254 256 275 277 203 185
216 215 214 214 213 213 213 211 212 212 213 210 208 207 205 203 200 202 202 200 202 195 214 208 215 228 236 240 217 211 216 192 195 190 194 214 233 222 219 238 235 224 189 225 240 242 268 270 259 256 252 227 219 210
216 217 217 216 215 213 213 212 212 212 210 208 207 206 204 203 203 202 204 198 199 180 196 214 200 196 201 205 189 212 224 193 176 177 195 192 232 234 265 304 256 290 171 226 258 278 282 275 269 263 224 215 221 220
214 215 214 212 214 213 212 211 211 209 208 208 204 203 201 201 201 201 206 206 205 190 173 170 202 211 206 203 199 192 162 155 157 161 158 194 199 163 218 270 204 211 228 217 242 266 281 282 296 222 204 214 210 177
213 213 212 208 209 211 210 209 209 207 204 203 201 200 199 196 192 190 200 214 212 207 184 170 185 206 205 216 223 224 215 208 197 156 185 213 204 227 234 234 239 232 245 252 255 269 253 251 227 209 197 197 180 174
213 212 211 211 208 207 208 207 206 205 202 202 201 200 198 193 190 187 200 208 203 200 199 137 184 185 200 194 196 205 213 213 211 202 217 243 225 228 241 250 256 251 250 248 243 233 240 244 230 204 204 182 180 178
214 210 209 208 207 203 203 203 203 201 198 199 199 198 194 190 195 198 207 192 192 182 175 172 147 165 171 162 165 181 188 199 207 223 192 218 234 228 249 248 232 240 247 243 241 233 258 231 199 199 195 182 179 180
210 204 203 205 200 199 199 201 197 195 194 192 191 189 188 188 195 200 195 165 183 185 184 161 161 171 160 136 145 160 180 198 205 232 222 211 226 229 237 239 230 239 230 234 233 222 209 194 194 190 186 186 184 182
198 196 197 196 195 195 195 193 198 186 186 182 180 180 183 190 190 176 176 189 198 196 208 168 161 160 176 157 147 141 180 222 219 223 214 237 248 248 252 248 239 236 231 223 195 193 192 190 189 190 193 190 187 189
194 194 193 193 192 191 188 187 182 179 179 179 178 171 167 168 160 170 187 179 188 178 185 183 181 143 178 173 145 184 181 193 234 190 211 240 253 221 236 235 239 238 233 232 232 242 220 216 192 189 186 185 186 190
190 189 188 188 188 187 189 187 185 182 179 179 156 134 132 154 177 158 193 170 191 178 185 170 165 148 150 155 147 175 193 194 241 140 220 248 245 247 254 249 247 244 240 235 218 213 201 188 188 188 183 183 185 184
184 187 186 185 185 183 184 183 183 185 172 148 147 182 131 174 172 185 171 172 168 160 163 150 146 146 139 172 132 174 190 211 129 219 234 248 258 268 274 265 241 219 201 198 196 194 185 181 181 182 177 181 182 178
179 183 181 178 178 176 178 180 182 167 158 164 145 134 186 169 197 182 180 169 163 167 161 158 150 136 142 164 151 180 189 156 222 232 243 242 242 255 260 258 202 189 181 181 179 180 179 177 173 175 180 183 182 180
176 175 174 177 173 175 180 184 176 164 162 138 121 194 183 113 152 168 171 143 155 156 148 147 124 114 122 141 195 149 176 224 223 240 240 259 254 249 242 237 211 189 181 175 176 175 176 176 176 175 177 179 178 180
172 162 174 171 171 172 169 162 152 161 165 137 145 130 121 128 150 152 152 143 153 150 147 136 123 143 175 173 178 200 198 217 219 216 237 236 258 246 227 215 197 185 178 172 174 178 178 178 177 172 171 177 178 181
163 158 169 169 170 169 159 146 135 142 143 146 163 158 151 161 165 159 159 155 157 150 156 143 167 185 128 195 197 192 219 226 215 223 228 232 233 233 214 199 189 180 170 170 174 174 173 170 171 172 173 175 180 186
156 163 162 163 168 149 144 156 124 120 133 161 154 159 174 173 164 161 166 158 161 170 165 167 136 181 187 187 205 216 226 227 222 229 243 252 248 227 199 189 184 175 169 172 174 170 169 171 169 167 174 178 183 191
151 153 155 154 148 142 128 135 136 106 95 113 119 125 146 145 166 162 164 168 168 164 141 153 165 186 200 212 217 207 216 212 214 228 239 242 226 212 192 180 172 170 173 174 170 172 173 171 168 169 173 179 182 184
148 142 141 144 149 145 103 99 97 93 113 122 105 124 124 139 149 147 156 168 162 159 184 203 207 192 198 199 196 205 202 202 200 177 189 199 198 186 180 177 169 169 167 166 168 169 162 162 168 172 179 183 181 185
131 135 146 135 101 95 96 124 106 104 110 103 122 103 105 124 137 150 157 160 174 203 213 217 196 205 187 181 188 193 206 214 213 221 223 195 188 174 169 172 170 172 173 173 169 169 171 175 175 179 187 187 188 198
118 125 122 100 84 79 73 67 105 109 99 133 110 92 110 125 136 160 155 176 205 211 215 207 201 193 193 207 216 217 224 223 218 213 207 193 172 172 173 175 175 175 177 179 176 180 176 176 183 187 189 190 197 208
129 105 90 91 102 89 119 126 110 94 115 133 122 107 116 133 150 141 168 214 230 223 225 231 227 220 226 236 232 228 228 219 207 202 197 179 176 178 180 176 178 179 176 177 184 183 182 187 189 189 190 195 205 215
116 67 61 60 70 97 126 84 97 103 106 150 133 119 141 131 153 195 199 205 224 220 220 221 215 214 219 218 215 217 214 206 201 193 183 179 173 170 173 173 177 182 188 186 184 185 191 191 190 191 196 204 211 219
68 19 49 63 77 111 110 122 122 116 124 150 138 142 150 162 186 193 212 195 193 202 206 207 207 211 211 207 208 207 211 203 193 186 182 177 169 158 163 171 177 185 190 189 187 190 189 190 194 198 204 210 215 222
83 21 38 101 122 131 151 131 149 137 124 142 163 136 155 172 185 216 193 181 186 193 199 199 193 193 202 209 199 198 197 187 179 168 164 171 171 170 172 175 178 183 187 195 198 191 190 194 200 205 210 212 217 225
100 88 71 69 107 127 116 94 120 120 131 148 156 155 158 193 211 149 153 177 182 202 203 195 190 193 188 178 180 180 171 167 165 160 157 161 170 180 188 192 194 194 191 189 189 195 201 204 208 210 212 216 221 227
86 94 143 95 88 47 106 110 138 145 148 159 140 170 177 256 91 4 283 215 181 173 174 177 176 172 167 164 161 159 155 151 155 159 158 163 173 183 195 197 196 186 186 187 188 195 201 206 212 214 218 223 227 231
73 76 86 60 61 47 35 32 62 54 58 127 103 117 118 66 349 323 309 173 171 175 164 156 149 152 152 151 151 151 152 156 162 162 168 170 175 180 182 180 176 177 180 184 190 198 200 204 208 213 219 224 231 236
95 87 90 64 57 51 22 20 79 111 111 105 107 111 80 58 52 102 122 142 155 162 158 153 151 158 158 158 157 159 163 168 177 177 178 181 182 179 179 178 182 184 187 191 196 198 201 205 208 213 219 226 233 238
114 106 90 81 89 59 88 95 102 94 89 91 100 108 108 114 79 95 127 145 157 161 161 159 160 164 162 160 159 158 160 165 171 179 188 188 181 182 181 181 181 183 187 192 194 196 202 206 211 217 224 230 236 241
52 78 125 112 114 106 105 61 62 73 82 94 78 88 87 75 66 44 93 145 157 162 167 165 162 163 165 165 163 164 168 166 168 174 177 175 175 178 180 181 182 184 185 187 190 195 201 210 219 225 230 234 239 243
87 95 95 100 112 111 58 85 79 91 60 66 52 59 60 65 86 69 94 157 158 161 166 169 169 165 161 161 165 168 166 166 161 156 157 166 174 179 181 184 186 187 188 191 195 201 208 216 223 228 233 237 241 247